640 
ASUS46 KSEW 280510
RWRWA 

WASHINGTON REGIONAL WEATHER ROUNDUP
NATIONAL WEATHER SERVICE SEATTLE WA
1000 PM PDT TUE JUN 27 2017

NOTE:"FAIR" INDICATES FEW OR NO CLOUDS BELOW 12,000 FEET WITH NO 
SIGNIFICANT WEATHER AND/OR OBSTRUCTIONS TO VISIBILITY.

WAZ507-509-555>559-280600-
SEATTLE, TACOMA, EVERETT, AND VICINITY
  
CITY           SKY/WX    TMP DP  RH WIND       PRES   REMARKS
EVERETT        CLEAR     59  54  83 N5        29.98R                  
BOEING FIELD   MOCLDY    68  54  60 CALM      29.96R                  
RENTON         MOCLDY    67  54  63 SE3       29.96R                  
SEATAC AIRPORT PTCLDY    65  51  60 SW3       29.98R                  
JBLM-MCCHORD   CLEAR     63  54  72 W7        29.98R                  
PUYALLUP       FAIR      59  55  88 CALM      29.98R                  
BREMERTON      CLEAR     59  53  80 SW3       29.98R                  
JBLM-FT LEWIS  CLEAR     62  55  78 W8        29.98R                  
TACOMA NARROWS PTCLDY    61  51  70 W5        29.99R                  
$$
 
WAZ001-503-506-510-514-515-280600-
NORTH INTERIOR
  
CITY           SKY/WX    TMP DP  RH WIND       PRES   REMARKS
BELLINGHAM     CLEAR     62  54  74 S8        29.95R                  
FRIDAY HARBOR  CLEAR     52  50  93 CALM      29.97R                  
EASTSOUND      CLEAR     61  52  72 S10       29.95R                  
PORT ANGELES   CLEAR     55  51  86 NW8       29.98S                  
EDIZ HOOK      FAIR      56  50  79 W9        29.98R                  
PORT TOWNSEND  FAIR      54  50  87 NW3       29.98R                  
NAS WHIDBEY    PTCLDY    55  48  77 SW3       30.01R                  
ARLINGTON      CLEAR     60  53  77 NW10      29.98R                  
BURLINGTON     CLEAR     57  52  82 CALM      29.97R                  
$$
 
WAZ020-022-039-040-504-511-512-280600-
SOUTHWEST INTERIOR
  
CITY           SKY/WX    TMP DP  RH WIND       PRES   REMARKS
SHELTON        NOT AVBL                                               
OLYMPIA        CLEAR     59  52  77 S6        29.98R                  
CHEHALIS       FAIR      59  52  77 CALM      30.00R                  
KELSO          CLEAR     60  52  74 VRB5      30.02R                  
VANCOUVER      CLEAR     65  52  62 N8        29.97R                  
SCAPPOOSE, OR  CLEAR     62  51  67 NW6       29.97R                  
PORTLAND, OR   PTCLDY    65  52  62 N7        29.97R                  
$$
 
WAZ021-516-517-280600-
WASHINGTON COAST
  
CITY           SKY/WX    TMP DP  RH WIND       PRES   REMARKS
FORKS          CLEAR     54  51  90 CALM      30.01R                  
HOQUIAM        CLOUDY    58  52  80 SW6       30.02R                  
ASTORIA, OR    CLOUDY    59  49  69 W6        30.03R                  
$$
 
WAZ019-023-024-040-567>569-280600-
CASCADE MOUNTAINS AND COLUMBIA GORGE
  
CITY           SKY/WX    TMP DP  RH WIND       PRES   REMARKS
STAMPEDE PASS  PTCLDY    50  48  93 VRB7      30.02R                  
TROUTDALE, OR  CLEAR     67  51  56 VRB5      29.97R                  
HOOD RIVER, OR CLEAR     64  43  45 CALM      29.92R                  
THE DALLES, OR CLEAR     71  43  36 W16G24    29.85R                  
$$

WAZ026-027-041>044-520-521-280600-
EAST SLOPES
  
CITY           SKY/WX    TMP DP  RH WIND       PRES   REMARKS
OMAK           PTCLDY    66  38  35 W9        29.75R                  
WENATCHEE      MOCLDY    73  42  32 NW9       29.81R                  
ELLENSBURG     PTCLDY    66  44  45 NW23G30   29.86R                  
YAKIMA         PTCLDY    73  41  31 SW7       29.83R                  
SUNNYSIDE ARPT PTCLDY    66  44  44 W3        29.78R                  
YAKIMA TC      FAIR      71  31  22 N10G16    29.83R                  
$$

WAZ028-034-035-280600-
COLUMBIA BASIN
  
CITY           SKY/WX    TMP DP  RH WIND       PRES   REMARKS
EPHRATA        MOCLDY    76  30  18 NW10      29.75R                  
MOSES LAKE     MOCLDY    74  45  35 SW13      29.76R                  
PASCO          CLEAR     73  52  47 SW6       29.76R                  
RICHLAND ARPT  CLEAR     74  53  47 SW5       29.76R                  
HERMISTON, OR  PTCLDY    72  50  45 SW15      29.79R                  
$$

WAZ036>038-280600-
NORTHEAST WASHINGTON
  
CITY           SKY/WX    TMP DP  RH WIND       PRES   REMARKS
SPOKANE GEIGER MOCLDY    71  37  28 SW7       29.81R                  
SPOKANE FELTS  PTCLDY    69  45  41 CALM      29.80R                  
FAIRCHILD AFB  PTCLDY    63  37  38 SW6       29.81R                  
COEURDALENE,ID PTCLDY    66  49  54 CALM      29.82R                  
DEER PARK      PTCLDY    57  46  66 CALM      29.80R                  
$$

WAZ029>033-280600-
SOUTHEAST WASHINGTON
  
CITY           SKY/WX    TMP DP  RH WIND       PRES   REMARKS
PULLMAN        MOCLDY    64  45  49 CALM      29.86R                  
LEWISTON, ID   MOCLDY    71  44  37 S7        29.79R                  
WALLA WALLA    MOCLDY    70  50  49 E6        29.80R                  
PENDLETON, OR  MOCLDY    65  48  54 W12       29.82R                  
$$